Weather History for Fort Campbell, KY

Change the Weather History Date:

Wednesday, February 20, 2013

  Actual Average Record
Temperature  
Mean Temperature 28 °F -  
Max Temperature 32 °F 50 °F 77 °F (1997)
Min Temperature 23 °F 31 °F 16 °F (2009)
Degree Days  
Heating Degree Days 38    
Moisture  
Dew Point 15 °F    
Average Humidity 62    
Maximum Humidity 80    
Minimum Humidity 43    
Precipitation  
Precipitation 0.00 in - - ()
Sea Level Pressure  
Sea Level Pressure 30.32 in    
Wind  
Wind Speed 5 mph (North)    
Max Wind Speed 9 mph    
Max Gust Speed -    
Visibility 10 miles    
Events      
Averages and records for this station are not official NWS values.
T = Trace of Precipitation, MM = Missing Value Source: NWS Daily Summary

Daily Weather History Graph

Daily Weather History Graph

Search for Another Location

Airport:

Trip Planner

Search our weather history database for the weather conditions in past years. The results will help you decide how hot, cold, wet, or windy it might be!

Date:

Astronomy

Feb. 20, 2013 Rise Set
Actual Time 6:31 AM CST 5:35 PM CST
Civil Twilight 6:05 AM CST 6:02 PM CST
Nautical Twilight 5:35 AM CST 6:32 PM CST
Astronomical Twilight 5:05 AM CST 7:02 PM CST
Moon 1:01 PM CST (2/20) 2:47 AM CST (2/20)
Length of Visible Light 11h 56m
Length of Day
11h 04m
Waxing Gibbous, 76% of the Moon is Illuminated
Feb 20
Waxing Gibbous
Feb 25
Full
Mar 4
Last Quarter
Mar 11
New
Mar 19
First Quarter

Hourly Weather History & Observations

Time (CST) Temp. Windchill Dew Point Humidity Pressure Visibility Wind Dir Wind Speed Gust Speed Precip Events Conditions
12:55 AM 27.0 °F 23.0 °F 18.3 °F 70% 30.30 in 10.0 mi NNW 3.5 mph - N/A   Clear
1:55 AM 26.1 °F 21.9 °F 17.4 °F 70% 30.30 in 10.0 mi NNW 3.5 mph - N/A   Clear
2:55 AM 25.3 °F 19.7 °F 15.8 °F 67% 30.29 in 10.0 mi NW 4.6 mph - N/A   Clear
3:55 AM 24.8 °F 19.1 °F 14.7 °F 66% 30.30 in 10.0 mi NNW 4.6 mph - N/A   Clear
4:55 AM 23.5 °F 19.1 °F 13.8 °F 66% 30.31 in 10.0 mi North 3.5 mph - N/A   Clear
5:55 AM 23.4 °F 18.9 °F 12.9 °F 64% 30.31 in 10.0 mi North 3.5 mph - N/A   Clear
6:55 AM 23.4 °F 18.9 °F 12.6 °F 63% 30.33 in 10.0 mi NNW 3.5 mph - N/A   Clear
7:55 AM 25.5 °F 16.9 °F 12.6 °F 58% 30.35 in 10.0 mi NNW 8.1 mph - N/A   Clear
8:55 AM 26.4 °F 19.8 °F 12.4 °F 55% 30.37 in 10.0 mi NNE 5.8 mph - N/A   Clear
9:55 AM 27.3 °F 19.1 °F 12.4 °F 53% 30.39 in 10.0 mi North 8.1 mph - N/A   Partly Cloudy
10:55 AM 28.8 °F 22.6 °F 12.7 °F 51% 30.37 in 10.0 mi North 5.8 mph - N/A   Mostly Cloudy
11:55 AM 29.1 °F 24.1 °F 12.7 °F 50% 30.36 in 10.0 mi Variable 4.6 mph - N/A   Mostly Cloudy
12:55 PM 30.2 °F 23.4 °F 12.2 °F 47% 30.34 in 10.0 mi NW 6.9 mph - N/A   Mostly Cloudy
1:55 PM 30.7 °F 27.3 °F 13.1 °F 48% 30.35 in 10.0 mi Variable 3.5 mph - N/A   Mostly Cloudy
2:55 PM 31.1 °F 25.4 °F 14.4 °F 50% 30.32 in 10.0 mi NNW 5.8 mph - N/A   Mostly Cloudy
3:55 PM 32.5 °F 24.8 °F 12.2 °F 43% 30.30 in 10.0 mi NE 9.2 mph - N/A   Overcast
4:55 PM 31.1 °F 24.5 °F 15.6 °F 53% 30.29 in 10.0 mi NNE 6.9 mph - N/A   Clear
5:55 PM 28.6 °F 20.7 °F 17.2 °F 63% 30.28 in 10.0 mi NE 8.1 mph - N/A   Clear
6:55 PM 27.0 °F 19.5 °F 19.8 °F 74% 30.29 in 10.0 mi NNE 6.9 mph - N/A   Partly Cloudy
7:55 PM 26.4 °F 20.9 °F 19.4 °F 75% 30.31 in 10.0 mi North 4.6 mph - N/A   Scattered Clouds
8:55 PM 26.8 °F 20.2 °F 19.0 °F 73% 30.31 in 10.0 mi NNE 5.8 mph - N/A   Mostly Cloudy
9:55 PM 26.8 °F 20.2 °F 19.8 °F 75% 30.30 in 10.0 mi NNE 5.8 mph - N/A   Overcast
10:55 PM 26.2 °F 17.8 °F 19.9 °F 77% 30.29 in 10.0 mi NNE 8.1 mph - N/A   Overcast
11:55 PM 25.3 °F 17.6 °F 19.9 °F 80% 30.29 in 10.0 mi NNE 6.9 mph - N/A   Partly Cloudy